[[{"header":{"parameterUnit":"m.s-1","parameterCategory":1,"la1":30.2991,"la2":30.254,"lo1":-89.0895,"lo2":-89.0444,"dy":0.0017,"dx":0.0017,"nx":28,"ny":28,"refTime":"2025-03-26T09:00:00:Z","depth":0,"parameterNumber":2,"parameterNumberName":"U-component_of_WINDS"},"data":[0,0,0,0,0,0,0,0,0,0,0,0,0,0,0,0,0,0,0,0,0,0,0,0,0,0,0,0,0,0,0,0,0,0,0,0,0,0,0,0,0,0,0,0,0,0,0,0,0,0,0,0,0,0,0,0,0,0,-5.4962,-5.4962,0,-5.5008,-5.5008,-5.5009,-5.4919,-5.4916,-5.4913,-5.491,-5.4954,-5.4957,-5.4961,0,0,0,0,0,0,0,0,0,0,0,0,0,-5.4794,-5.4797,-5.4962,-5.4962,-5.4963,-5.5008,-5.5008,-5.5009,-5.4919,-5.4915,-5.4912,-5.4908,-5.4952,-5.4957,-5.4962,0,0,0,0,0,0,0,0,0,0,0,0,0,-5.4856,-5.4799,-5.4962,-5.4924,-5.4921,-5.5008,-5.5008,-5.5009,-5.492,-5.4915,-5.4911,-5.4907,-5.4951,-5.4956,-5.4962,-5.5087,0,0,-5.498,-5.4983,0,0,0,0,0,0,0,0,-5.4853,-5.4862,-5.4929,-5.4926,-5.4923,-5.4953,-5.4965,-5.5035,-5.4921,-5.492,-5.491,-5.4905,-5.4957,-5.4962,-5.498,-5.5089,-5.5091,-5.4981,-5.4984,-5.4987,-5.4988,0,0,0,0,0,0,0,-5.4848,-5.486,-5.498,-5.493,-5.4927,-5.4903,-5.4907,-5.4978,-5.4963,-5.492,-5.4913,-5.492,-5.4954,-5.4975,-5.498,-5.5092,-5.4981,-5.4986,-5.4989,-5.4992,-5.5304,-5.5309,0,0,0,0,0,0,-5.4849,-5.4857,-5.4978,-5.4981,-5.4876,-5.491,-5.4914,-5.4948,-5.4962,-5.4959,-5.4924,-5.4916,-5.4967,-5.4974,-5.4982,-5.5127,-5.4987,-5.4992,-5.4996,-5.53,-5.5306,-5.5311,0,0,0,0,0,0,-5.4846,-5.4861,-5.4976,-5.4917,-5.493,-5.4918,-5.4956,-5.4951,-5.4971,-5.4965,-5.4961,-5.4948,-5.4963,-5.4973,-5.5061,-5.5127,-5.4995,-5.5,-5.5294,-5.5302,-5.5308,-5.542,0,0,0,0,0,0,-5.4842,-5.486,-5.4908,-5.4919,-5.4934,-5.5057,-5.496,-5.4955,-5.4982,-5.4972,-5.4986,-5.4984,-5.4961,-5.5053,-5.5067,-5.5133,-5.5005,-5.5288,-5.5297,-5.5306,-5.541,-5.543,-5.5447,0,0,0,0,0,-5.4836,-5.4937,-5.4911,-5.4926,-5.4993,-5.5061,-5.5069,-5.5041,-5.4988,-5.5035,-5.5031,-5.4984,-5.5119,-5.5063,-5.5078,-5.5146,-5.5284,-5.5295,-5.5305,-5.5402,-5.5426,-5.5446,0,0,0,0,0,0,-5.4933,-5.4938,-5.4909,-5.5017,-5.5039,-5.5045,-5.5104,-5.5068,-5.5104,-5.5093,-5.5056,-5.506,-5.5155,-5.516,-5.5098,-5.5268,-5.5192,-5.5206,-5.526,-5.5283,-5.5301,-5.5296,-5.501,0,0,0,0,0,-5.4967,-5.5022,-5.5024,-5.5119,-5.5132,-5.5117,-5.5145,-5.5122,-5.5143,-5.5151,-5.5153,-5.5175,-5.5222,-5.5253,-5.5297,-5.5412,-5.5412,-5.5466,-5.5485,-5.55,-5.5511,-5.5571,-5.5594,-5.5346,-5.5346,-5.5346,0,0,-5.5037,-5.5047,-5.5084,-5.5139,-5.5153,-5.521,-5.5125,-5.5188,-5.5229,-5.516,-5.5243,-5.5247,-5.5268,-5.537,-5.5415,-5.5377,-5.5581,-5.5514,-5.5526,-5.5529,-5.5584,-5.5608,-5.5629,-5.5353,-5.5352,-5.5351,0,0,-5.5194,-5.5209,-5.5288,-5.5305,-5.5329,-5.5319,-5.5338,-5.5351,-5.535,-5.5433,-5.5382,-5.5431,-5.5513,-5.553,-5.555,-5.5715,-5.5672,-5.5731,-5.5825,-5.5884,-5.5903,-5.592,-5.5976,-5.5997,-5.5743,-5.5744,-5.5744,0,-5.5278,-5.5362,-5.5334,-5.5401,-5.5426,-5.5369,-5.5448,-5.5466,-5.5502,-5.552,-5.5478,-5.558,-5.559,-5.5695,-5.5735,-5.5754,-5.5773,-5.5727,-5.5903,-5.592,-5.5935,-5.5988,-5.601,-5.575,-5.5749,-5.5749,-5.5748,0,-5.5463,-5.5523,-5.5585,-5.5622,-5.5654,-5.5728,-5.571,-5.5746,-5.5721,-5.5715,-5.58,-5.5811,-5.5855,-5.5879,-5.5855,-5.598,-5.5955,-5.5909,-5.5831,-5.5966,-5.6015,-5.6036,-5.576,-5.5757,-5.5755,-5.5754,0,0,-5.5678,-5.5701,-5.5724,-5.574,-5.5763,-5.5807,-5.5879,-5.5923,-5.5953,-5.5981,-5.6038,-5.6111,-5.6068,-5.609,-5.6068,-5.612,-5.6248,-5.6067,-5.6067,-5.6097,-5.6383,-5.6415,-5.644,-5.6221,-5.6225,-5.6228,-5.638,0,-5.5831,-5.5953,-5.5931,-5.605,-5.6103,-5.6051,-5.6112,-5.6133,-5.613,-5.6174,-5.617,-5.6221,-5.6162,-5.6175,-5.6225,-5.6222,-5.6304,-5.6211,-5.6271,-5.6274,-5.6263,-5.6466,-5.65,-5.6642,-5.64,-5.6403,-5.6406,0,-5.6025,-5.6061,-5.6185,-5.62,-5.6221,-5.6277,-5.6315,-5.636,-5.6382,-5.6376,-5.6402,-5.637,-5.644,-5.6365,-5.6459,-5.6397,-5.6421,-5.6423,-5.6428,-5.6429,-5.6345,-5.6469,-5.6688,-5.6708,-5.6436,-5.6434,-5.6432,0,-5.6165,-5.6245,-5.6329,-5.6345,-5.6365,-5.6405,-5.6415,-5.6433,-5.6461,-5.6496,-5.6513,-5.6555,-5.6577,-5.6609,-5.6589,-5.6537,-5.6686,-5.661,-5.6681,-5.6682,-5.6711,-5.6709,-5.6933,-5.6734,-5.6733,-5.6733,-5.6733,0,-5.6335,-5.6413,-5.6393,-5.6444,-5.6529,-5.6503,-5.6588,-5.6592,-5.6609,-5.6659,-5.6617,-5.6665,-5.6638,-5.6684,-5.6669,-5.6748,-5.6759,-5.6755,-5.6749,-5.6756,-5.6757,-5.6768,-5.6756,-5.6739,-5.6737,-5.6736,-5.6735,0,-5.6504,-5.6495,-5.6582,-5.6595,-5.66,-5.6662,-5.6672,-5.672,-5.6715,-5.6779,-5.6793,-5.6785,-5.6837,-5.6822,-5.6878,-5.6868,-5.6967,-5.6951,-5.6959,-5.6954,-5.7024,-5.7016,-5.7261,-5.729,-5.7075,-5.7078,-5.7079,0,-5.6612,-5.667,-5.669,-5.6721,-5.6735,-5.6786,-5.6815,-5.6793,-5.6824,-5.6854,-5.6898,-5.6947,-5.6984,-5.7069,-5.7067,-5.711,-5.7092,-5.7175,-5.7098,-5.7103,-5.7089,-5.7084,-5.7089,-5.7189,-5.7191,-5.7193,-5.7195,0,-5.6803,-5.6795,-5.6839,-5.6882,-5.6917,-5.695,-5.6978,-5.7006,-5.6985,-5.7023,-5.7076,-5.7105,-5.7163,-5.7211,-5.725,-5.7259,-5.7223,-5.722,-5.7238,-5.7243,-5.7245,-5.7242,-5.6997,-5.7213,-5.7211,-5.721,-5.7209,-5.7208,-5.6941,-5.699,-5.7012,-5.7062,-5.7081,-5.7109,-5.7154,-5.7156,-5.72,-5.7246,-5.7231,-5.7291,-5.7312,-5.7361,-5.7375,-5.7421,-5.7389,-5.7416,-5.7422,-5.7428,-5.7436,-5.7242,-5.7429,-5.7428,-5.7428,-5.7427,-5.7427,0,-5.7127,-5.7139,-5.7186,-5.7227,-5.7266,-5.7232,-5.7262,-5.7296,-5.735,-5.7374,-5.7412,-5.7473,-5.752,-5.7523,-5.7566,-5.7603,-5.7587,-5.7615,-5.7609,-5.7612,-5.7463,-5.7442,-5.7626,-5.7626,-5.7626,-5.7626,-5.7626,-5.7626,-5.7228,-5.7308,-5.7304,-5.7394,-5.7405,-5.7464,-5.7484,-5.7509,-5.7527,-5.7597,-5.7636,-5.7639,-5.7654,-5.7699,-5.774,-5.7739,-5.7756,-5.7789,-5.7782,-5.7642,-5.7622,-5.7603,-5.7582,-5.7793,-5.7794,-5.7926,-5.7927,-5.7928]},{"header":{"parameterUnit":"m.s-1","parameterCategory":1,"la1":30.2991,"la2":30.254,"lo1":-89.0895,"lo2":-89.0444,"dy":0.0017,"dx":0.0017,"nx":28,"ny":28,"refTime":"2025-03-26T09:00:00:Z","depth":0,"parameterNumber":3,"parameterNumberName":"V-component_of_WINDS"},"data":[0,0,0,0,0,0,0,0,0,0,0,0,0,0,0,0,0,0,0,0,0,0,0,0,0,0,0,0,0,0,0,0,0,0,0,0,0,0,0,0,0,0,0,0,0,0,0,0,0,0,0,0,0,0,0,0,0,0,2.8989,2.8989,0,2.9037,2.9037,2.9038,2.9009,2.9007,2.9006,2.9005,2.905,2.9053,2.9055,0,0,0,0,0,0,0,0,0,0,0,0,0,2.887,2.8872,2.8989,2.8989,2.899,2.9037,2.9037,2.9038,2.9009,2.9007,2.9005,2.9004,2.9049,2.9052,2.9055,0,0,0,0,0,0,0,0,0,0,0,0,0,2.892,2.8873,2.8989,2.8981,2.8981,2.9037,2.9037,2.9038,2.9009,2.9007,2.9005,2.9003,2.9048,2.9052,2.9056,2.912,0,0,2.9067,2.9069,0,0,0,0,0,0,0,0,2.8917,2.8924,2.8982,2.8982,2.8982,2.9015,2.9012,2.9066,2.901,2.8998,2.9005,2.9002,2.904,2.9044,2.9058,2.9123,2.9125,2.9068,2.907,2.9071,2.9072,0,0,0,0,0,0,0,2.8914,2.8922,2.9008,2.8982,2.8982,2.8975,2.898,2.9022,2.903,2.8999,2.8997,2.9003,2.9039,2.9054,2.9058,2.9125,2.9067,2.9071,2.9073,2.9075,2.9248,2.925,0,0,0,0,0,0,2.8911,2.8919,2.9006,2.9009,2.8944,2.8979,2.8984,2.9006,2.9029,2.9031,2.9005,2.9002,2.9049,2.9054,2.906,2.9139,2.9071,2.9075,2.9077,2.9246,2.9249,2.9251,0,0,0,0,0,0,2.8909,2.8919,2.9004,2.8964,2.8974,2.8983,2.9008,2.9008,2.9023,2.9034,2.9035,2.9019,2.9047,2.9055,2.9106,2.914,2.9077,2.908,2.9243,2.9247,2.925,2.9296,0,0,0,0,0,0,2.8905,2.8918,2.8943,2.8965,2.8976,2.905,2.901,2.9011,2.903,2.9026,2.9047,2.9049,2.9046,2.9101,2.911,2.9144,2.9083,2.924,2.9245,2.9249,2.9292,2.9301,2.9309,0,0,0,0,0,2.8901,2.8953,2.8945,2.8955,2.9008,2.9052,2.9059,2.9056,2.9033,2.9058,2.9065,2.9048,2.9135,2.9107,2.9117,2.9152,2.9238,2.9243,2.9248,2.9288,2.9299,2.9308,0,0,0,0,0,0,2.8933,2.8956,2.8947,2.9007,2.9028,2.9047,2.9079,2.9068,2.9095,2.909,2.9084,2.9089,2.9144,2.9153,2.9121,2.9217,2.9183,2.919,2.9209,2.922,2.9228,2.9225,2.9086,0,0,0,0,0,2.8948,2.8983,2.9,2.9052,2.9063,2.907,2.9089,2.9085,2.9106,2.9115,2.9126,2.9146,2.9179,2.92,2.9229,2.9293,2.9298,2.9322,2.9331,2.9338,2.9344,2.938,2.9392,2.9268,2.9268,2.9268,0,0,2.8977,2.8994,2.9016,2.9059,2.9075,2.9112,2.9077,2.9116,2.9143,2.912,2.9171,2.918,2.9202,2.9261,2.9287,2.927,2.938,2.9345,2.935,2.9353,2.9387,2.9399,2.9409,2.9272,2.9271,2.9271,0,0,2.905,2.9066,2.9112,2.913,2.9155,2.9159,2.9171,2.9192,2.9198,2.9249,2.9233,2.9264,2.9319,2.9337,2.9353,2.9436,2.9421,2.9445,2.949,2.9525,2.9534,2.9543,2.9574,2.9585,2.9452,2.9452,2.9452,0,2.9083,2.9139,2.9136,2.9178,2.9198,2.9181,2.9228,2.9244,2.9278,2.9292,2.9272,2.9343,2.9357,2.942,2.9441,2.9454,2.9466,2.9443,2.9533,2.9542,2.955,2.9579,2.9591,2.9455,2.9454,2.9454,2.9454,0,2.9179,2.9218,2.9251,2.9287,2.931,2.9354,2.9359,2.9382,2.9377,2.9384,2.9436,2.9453,2.9487,2.9502,2.9496,2.9565,2.9554,2.9534,2.9499,2.9565,2.9592,2.9603,2.9459,2.9458,2.9457,2.9456,0,0,2.9272,2.9308,2.932,2.9337,2.9365,2.9395,2.9438,2.9473,2.9495,2.9519,2.9555,2.9604,2.9587,2.9605,2.9601,2.9632,2.9699,2.9609,2.961,2.9626,2.9777,2.9792,2.9805,2.9689,2.9691,2.9693,2.9775,0,2.9347,2.9425,2.9425,2.9497,2.9533,2.9519,2.9557,2.9578,2.9586,2.9617,2.9625,2.966,2.9634,2.9645,2.9675,2.9684,2.9729,2.9678,2.9723,2.9725,2.9719,2.9819,2.9834,2.9911,2.9786,2.9788,2.9789,0,2.9445,2.9475,2.9551,2.9576,2.9591,2.9626,2.9659,2.969,2.9714,2.9717,2.9739,2.9732,2.9776,2.9741,2.9802,2.9768,2.9786,2.9794,2.9797,2.9801,2.9761,2.9826,2.9935,2.9947,2.9806,2.9804,2.9803,0,2.9507,2.9566,2.9619,2.9634,2.9665,2.9689,2.9703,2.9726,2.9747,2.9776,2.9791,2.9824,2.9842,2.9867,2.9869,2.9843,2.9932,2.9896,2.9936,2.9936,2.9955,2.9954,3.0069,2.9966,2.9966,2.9966,2.9965,0,2.9591,2.9638,2.9648,2.9681,2.9734,2.9734,2.9786,2.9797,2.9818,2.9853,2.9841,2.9874,2.9874,2.9907,2.9909,2.996,2.9968,2.9972,2.9972,2.9974,2.9973,2.9986,2.9981,2.9969,2.9968,2.9967,2.9967,0,2.9669,2.9677,2.9735,2.976,2.9768,2.9805,2.9827,2.9858,2.9866,2.991,2.992,2.9931,2.997,2.9975,3.0019,3.002,3.0083,3.0077,3.0075,3.0075,3.0115,3.0111,3.0242,3.026,3.0145,3.0146,3.0147,0,2.9722,2.9759,2.9789,2.9812,2.9828,2.9865,2.9889,2.9891,2.9915,2.9947,2.9975,3.0013,3.0044,3.0107,3.0118,3.0153,3.0148,3.0191,3.0153,3.0154,3.015,3.0148,3.0152,3.0199,3.02,3.0201,3.0202,0,2.9817,2.982,2.9854,2.9891,2.992,2.9948,2.9975,2.9994,3.0,3.0028,3.0069,3.0093,3.014,3.0178,3.0213,3.0226,3.0216,3.0214,3.0226,3.0228,3.0226,3.0228,3.0096,3.0211,3.021,3.0209,3.0209,3.0209,2.9885,2.9917,2.9945,2.9984,3.0005,3.0031,3.0062,3.0075,3.0109,3.0149,3.0148,3.0193,3.0218,3.0264,3.028,3.0315,3.0301,3.0316,3.0321,3.0325,3.033,3.022,3.0321,3.0321,3.0321,3.032,3.032,0,2.998,2.9997,3.0034,3.0073,3.0104,3.0093,3.0123,3.0149,3.019,3.0215,3.0246,3.0294,3.0332,3.0347,3.0384,3.041,3.0406,3.0419,3.0418,3.0421,3.034,3.0327,3.0422,3.0422,3.0422,3.0422,3.0422,3.0422,3.0033,3.0088,3.0095,3.0161,3.0177,3.0223,3.0241,3.0265,3.0286,3.034,3.0372,3.0383,3.0404,3.0443,3.0478,3.0481,3.0495,3.0512,3.0513,3.0437,3.0427,3.0417,3.0405,3.0515,3.0515,3.0592,3.0592,3.0593]}]]